When you browse on this site, cookies collect data to enhance your experience and personalize the content and advertising you see.
Visit our Privacy Policy to learn more. By continuing to use the site, you agree to this use of cookies and data.
  • In Spain
  • List of Countries
  • For 7 days
  • Water Temperature
  • Satellite Maps
  • Weather Map
  • Weather Widgets
  • user-avatar
    Login

    Hourly Weather Atoyatempan

    Today, 25 April, Thursday

    Time Temperature Precipitation Wind Pressure Humidity
    00:00 +20°C° 0 mm 1 mps 606 mmHg 35%
    01:00 +19°C° 0 mm 1 mps 606 mmHg 39%
    02:00 +17°C° 0 mm 0 mps 605 mmHg 44%
    03:00 +16°C° 0 mm 0 mps 605 mmHg 48%
    04:00 +15°C° 0 mm 0 mps 605 mmHg 52%
    05:00 +14°C° 0 mm 0 mps 605 mmHg 55%
    06:00 +19°C° 0 mm 1 mps 606 mmHg 49%
    07:00 +21°C° 0 mm 1 mps 607 mmHg 43%
    08:00 +23°C° 0 mm 2 mps 609 mmHg 37%
    09:00 +25°C° 0 mm 3 mps 609 mmHg 32%
    10:00 +27°C° 0 mm 3 mps 610 mmHg 27%
    11:00 +29°C° 0 mm 4 mps 610 mmHg 22%
    12:00 +30°C° 0 mm 5 mps 610 mmHg 20%
    13:00 +32°C° 0 mm 5 mps 610 mmHg 18%
    14:00 +32°C° 0 mm 6 mps 610 mmHg 16%
    15:00 +32°C° 0 mm 6 mps 610 mmHg 16%
    16:00 +30°C° 0 mm 6 mps 610 mmHg 17%
    17:00 +29°C° 0 mm 6 mps 610 mmHg 17%
    18:00 +28°C° 0 mm 4 mps 610 mmHg 22%
    19:00 +26°C° 0 mm 3 mps 610 mmHg 27%
    20:00 +24°C° 0 mm 2 mps 610 mmHg 32%
    21:00 +23°C° 0 mm 2 mps 610 mmHg 40%
    22:00 +21°C° 0 mm 2 mps 610 mmHg 47%
    23:00 +21°C° 0 mm 2 mps 610 mmHg 54%

    Tomorrow, 26 April, Friday

    Time Temperature Precipitation Wind Pressure Humidity
    00:00 +20°C° 0 mm 2 mps 609 mmHg 59%
    01:00 +19°C° 0 mm 2 mps 609 mmHg 63%
    02:00 +20°C° 0 mm 1 mps 609 mmHg 68%
    03:00 +19°C° 0 mm 1 mps 609 mmHg 70%
    04:00 +19°C° 0 mm 1 mps 609 mmHg 72%
    05:00 +18°C° 0 mm 1 mps 609 mmHg 74%
    06:00 +19°C° 0 mm 2 mps 610 mmHg 64%
    07:00 +21°C° 0 mm 2 mps 611 mmHg 54%
    08:00 +24°C° 0 mm 2 mps 612 mmHg 45%
    09:00 +26°C° 0 mm 3 mps 612 mmHg 39%
    10:00 +27°C° 0 mm 3 mps 612 mmHg 34%
    11:00 +29°C° 0 mm 3 mps 613 mmHg 28%
    12:00 +29°C° 0.1 mm 3 mps 612 mmHg 29%
    13:00 +29°C° 0.1 mm 4 mps 612 mmHg 30%
    14:00 +29°C° 0.1 mm 4 mps 611 mmHg 31%
    15:00 +27°C° 0.5 mm 5 mps 611 mmHg 36%
    16:00 +26°C° 0.5 mm 5 mps 610 mmHg 40%
    17:00 +23°C° 0.5 mm 5 mps 610 mmHg 45%
    18:00 +22°C° 0.1 mm 5 mps 610 mmHg 48%
    19:00 +21°C° 0.1 mm 5 mps 610 mmHg 51%
    20:00 +20°C° 0.1 mm 5 mps 610 mmHg 55%
    21:00 +20°C° 0.1 mm 4 mps 610 mmHg 56%
    22:00 +19°C° 0.1 mm 3 mps 610 mmHg 58%
    23:00 +19°C° 0.1 mm 2 mps 610 mmHg 60%

    Day after tomorrow, 27 April, Saturday

    Time Temperature Precipitation Wind Pressure Humidity
    00:00 +18°C° 0 mm 2 mps 609 mmHg 61%
    01:00 +18°C° 0 mm 2 mps 609 mmHg 63%
    02:00 +18°C° 0 mm 1 mps 608 mmHg 64%
    03:00 +18°C° 0 mm 1 mps 608 mmHg 65%
    04:00 +16°C° 0 mm 1 mps 608 mmHg 65%
    05:00 +16°C° 0 mm 1 mps 608 mmHg 66%
    06:00 +19°C° 0 mm 1 mps 609 mmHg 58%
    07:00 +21°C° 0 mm 1 mps 610 mmHg 50%
    08:00 +23°C° 0 mm 1 mps 611 mmHg 42%
    09:00 +25°C° 0 mm 2 mps 611 mmHg 38%
    10:00 +26°C° 0 mm 2 mps 611 mmHg 34%
    11:00 +28°C° 0 mm 3 mps 611 mmHg 30%
    12:00 +29°C° 0 mm 3 mps 611 mmHg 29%
    13:00 +30°C° 0 mm 4 mps 610 mmHg 27%
    14:00 +32°C° 0 mm 5 mps 610 mmHg 25%
    15:00 +30°C° 0.1 mm 4 mps 609 mmHg 27%
    16:00 +29°C° 0.1 mm 4 mps 609 mmHg 29%
    17:00 +28°C° 0.1 mm 3 mps 608 mmHg 31%
    18:00 +27°C° 0.1 mm 3 mps 609 mmHg 35%
    19:00 +26°C° 0.1 mm 3 mps 609 mmHg 40%
    20:00 +25°C° 0.1 mm 3 mps 609 mmHg 45%
    21:00 +24°C° 0 mm 3 mps 609 mmHg 47%
    22:00 +23°C° 0 mm 2 mps 609 mmHg 49%
    23:00 +23°C° 0 mm 1 mps 609 mmHg 51%

    28 April, Sunday

    Time Temperature Precipitation Wind Pressure Humidity
    00:00 +22°C° 0 mm 1 mps 608 mmHg 52%
    01:00 +22°C° 0 mm 1 mps 608 mmHg 54%
    02:00 +21°C° 0 mm 1 mps 607 mmHg 55%
    03:00 +21°C° 0 mm 1 mps 607 mmHg 56%
    04:00 +20°C° 0 mm 1 mps 607 mmHg 57%
    05:00 +20°C° 0 mm 1 mps 607 mmHg 59%
    06:00 +21°C° 0 mm 1 mps 608 mmHg 53%
    07:00 +22°C° 0 mm 1 mps 609 mmHg 47%
    08:00 +24°C° 0 mm 2 mps 610 mmHg 41%
    09:00 +25°C° 0 mm 2 mps 610 mmHg 36%
    10:00 +27°C° 0 mm 2 mps 610 mmHg 31%
    11:00 +29°C° 0 mm 3 mps 610 mmHg 27%
    12:00 +29°C° 0 mm 3 mps 610 mmHg 25%
    13:00 +30°C° 0 mm 4 mps 610 mmHg 23%
    14:00 +32°C° 0 mm 4 mps 609 mmHg 21%
    15:00 +30°C° 0 mm 4 mps 609 mmHg 23%
    16:00 +29°C° 0 mm 3 mps 609 mmHg 26%
    17:00 +28°C° 0 mm 2 mps 608 mmHg 28%
    18:00 +27°C° 0 mm 2 mps 609 mmHg 33%
    19:00 +25°C° 0 mm 3 mps 609 mmHg 39%
    20:00 +24°C° 0 mm 3 mps 609 mmHg 44%
    21:00 +23°C° 0 mm 2 mps 609 mmHg 46%
    22:00 +23°C° 0 mm 2 mps 609 mmHg 47%
    23:00 +23°C° 0 mm 1 mps 609 mmHg 48%

    29 April, Monday

    Time Temperature Precipitation Wind Pressure Humidity
    00:00 +22°C° 0 mm 1 mps 608 mmHg 51%
    01:00 +21°C° 0 mm 1 mps 608 mmHg 54%
    02:00 +19°C° 0 mm 0 mps 607 mmHg 57%
    03:00 +18°C° 0 mm 0 mps 607 mmHg 59%
    04:00 +17°C° 0 mm 0 mps 607 mmHg 62%
    05:00 +17°C° 0 mm 0 mps 607 mmHg 64%
    06:00 +19°C° 0 mm 0 mps 608 mmHg 58%
    07:00 +23°C° 0 mm 1 mps 609 mmHg 51%
    08:00 +25°C° 0 mm 1 mps 610 mmHg 45%
    09:00 +26°C° 0 mm 2 mps 610 mmHg 40%
    10:00 +28°C° 0 mm 2 mps 611 mmHg 35%
    11:00 +29°C° 0 mm 2 mps 611 mmHg 30%
    12:00 +30°C° 0 mm 3 mps 610 mmHg 28%
    13:00 +32°C° 0 mm 4 mps 610 mmHg 27%
    14:00 +32°C° 0 mm 4 mps 609 mmHg 25%
    15:00 +30°C° 0.2 mm 4 mps 609 mmHg 28%
    16:00 +29°C° 0.2 mm 3 mps 609 mmHg 32%
    17:00 +28°C° 0.2 mm 3 mps 609 mmHg 35%
    18:00 +26°C° 0.8 mm 4 mps 609 mmHg 42%
    19:00 +25°C° 0.8 mm 4 mps 609 mmHg 48%
    20:00 +22°C° 0.8 mm 5 mps 609 mmHg 55%
    21:00 +22°C° 0.2 mm 4 mps 609 mmHg 53%
    22:00 +22°C° 0.2 mm 3 mps 609 mmHg 51%
    23:00 +22°C° 0.2 mm 3 mps 609 mmHg 50%

    30 April, Tuesday

    Time Temperature Precipitation Wind Pressure Humidity
    00:00 +21°C° 0 mm 2 mps 609 mmHg 51%
    01:00 +21°C° 0 mm 1 mps 608 mmHg 52%
    02:00 +19°C° 0 mm 0 mps 607 mmHg 53%
    03:00 +18°C° 0 mm 0 mps 607 mmHg 54%
    04:00 +20°C° 0 mm 1 mps 607 mmHg 54%
    05:00 +19°C° 0 mm 1 mps 607 mmHg 54%
    06:00 +21°C° 0 mm 1 mps 608 mmHg 48%
    07:00 +23°C° 0 mm 1 mps 609 mmHg 41%
    08:00 +25°C° 0 mm 1 mps 610 mmHg 35%
    09:00 +26°C° 0 mm 1 mps 610 mmHg 32%
    10:00 +28°C° 0 mm 1 mps 611 mmHg 30%
    11:00 +30°C° 0 mm 1 mps 611 mmHg 27%
    12:00 +30°C° 0 mm 1 mps 611 mmHg 25%
    13:00 +31°C° 0 mm 2 mps 610 mmHg 23%
    14:00 +32°C° 0 mm 2 mps 610 mmHg 21%
    15:00 +31°C° 0.3 mm 2 mps 609 mmHg 25%
    16:00 +30°C° 0.3 mm 2 mps 609 mmHg 30%
    17:00 +28°C° 0.3 mm 2 mps 609 mmHg 34%
    18:00 +27°C° 1.5 mm 3 mps 609 mmHg 41%
    19:00 +25°C° 1.5 mm 5 mps 609 mmHg 48%
    20:00 +22°C° 1.5 mm 6 mps 609 mmHg 55%
    21:00 +22°C° 2.1 mm 4 mps 609 mmHg 56%
    22:00 +21°C° 2.1 mm 3 mps 609 mmHg 57%
    23:00 +22°C° 2.1 mm 1 mps 609 mmHg 58%
    Show more